User: anonymous   Login
Location: Unspecified
(0.0000°N, 0.0000°E)
Time: 20:16:41
(UTC+01:00)
Language:

Cosmos 2219 Rocket - Orbit

View from above orbital plane
View from above orbital plane
View from above satellite
View from above satellite

Ground track
Ground track

The orbit data is extracted from the following two-line orbital elements,

1 22220U 92076B   15059.05386005 -.00000153  00000-0 -53048-4 0  9994
2 22220 071.0009 027.5958 0010744 118.4119 309.1122 14.16352020151812
Epoch (UTC): 28 February 2015 01:17:33
Eccentricity: 0.0010744
inclination: 71.0009°
perigee height: 830 km
apogee height: 845 km
right ascension of ascending node: 27.5958°
argument of perigee: 118.4119°
revolutions per day: 14.16352020
mean anomaly at epoch: 309.1122°
orbit number at epoch: 15181

The dashed part of the orbit path shows where the satellite is in the earth's shadow,  

DLR